Simultaneous Nadir Overpasses (SNOs) Predictions

Prediction of SNOs between NOAA-20 and LANDSAT-8 Satellite Orbit:

Table of predicted SNOs for the next 14.0 days since TLE Epoch: 10/12/2019
Index Date (NOAA-20) Time (NOAA-20) Lat,Lon (NOAA-20) SZA (NOAA-20 ) Date (LANDSAT-8) Time (LANDSAT-8) Lat,Lon (LANDSAT-8) SZA (LANDSAT-8 ) Distance(km) Time Diff (sec)
1 10/12/2019 15:05:48 70.21, -50.41 77.55 10/12/2019 15:07:00 70.15, -50.15 77.48 12.31 72
2 10/12/2019 15:56:27 -69.96, 117.29 102.70 10/12/2019 15:56:31 -69.98, 117.25 102.68 2.77 4
3 10/12/2019 16:47:11 69.84, -75.23 77.21 10/12/2019 16:45:58 69.88, -75.25 77.24 3.51 73
4 10/15/2019 07:22:41 70.06, 65.59 78.40 10/15/2019 07:23:31 70.06, 65.61 78.39 0.90 50
5 10/15/2019 08:13:23 -69.96,-126.95 101.69 10/15/2019 08:13:01 -69.95,-126.91 101.71 2.25 22
6 10/15/2019 09:03:50 68.95, 41.82 77.31 10/15/2019 09:02:44 68.96, 39.41 77.32 96.35 66
7 10/17/2019 23:39:36 70.02,-178.58 79.34 10/17/2019 23:40:01 70.02,-178.56 79.34 0.96 25
8 10/18/2019 00:30:18 -69.92, -11.12 100.75 10/18/2019 00:29:31 -69.92, -11.08 100.76 1.42 47
9 10/20/2019 15:05:50 -70.29, 129.45 99.44 10/20/2019 15:07:01 -70.20, 129.93 99.53 20.51 71
10 10/20/2019 15:56:30 69.98, -62.75 80.27 10/20/2019 15:56:30 69.99, -62.73 80.27 1.08 0
11 10/20/2019 16:47:12 -69.88, 104.72 99.83 10/20/2019 16:46:00 -69.88, 104.75 99.83 1.31 72
12 10/23/2019 07:22:41 -70.04,-114.39 98.74 10/23/2019 07:23:33 -70.06,-114.40 98.73 1.52 52
13 10/23/2019 08:13:25 69.94, 53.07 81.18 10/23/2019 08:13:00 69.95, 53.09 81.18 0.83 25
14 10/23/2019 09:03:51 -68.99,-138.24 99.76 10/23/2019 09:02:44 -69.07,-140.46 99.69 88.69 67
15 10/25/2019 23:39:36 -70.00, 1.44 97.85 10/25/2019 23:40:03 -70.01, 1.42 97.84 1.32 27
16 10/26/2019 00:30:20 69.90, 168.90 82.07 10/26/2019 00:29:30 69.90, 168.91 82.07 0.39 50




NCC Satellite Simultaneous Nadir Overpasses (SNOs) Prediction Service
